Weather in Karpovka

Russia / Omsk Oblast     54°30′31″N   73°44′11″E
temp.,
°C
wind,
m/s
gust,
m/s
humid.,
%
clouds,
%
prec.,
mm/h
press.,
hPa
HPBL,
m
25 february, thu
thu2500:00−28ssw469049 0.0 101184
03:00−29ssw479639 0.0 1011105
06:00−29sw349932 0.0 101234
09:00−27sw349991 0.0 101252
12:00−24wsw359592 0.0 1014291
15:00−24wsw359367 0.0 1016291
18:00−24wsw479576 0.0 1019257
21:00−24wnw489698 0.0 1022187
26 february, fri
fri2600:00−29w479756 0.0 1024111
03:00−28w499784 0.0 1026191
06:00−28wsw489790 0.1 1029158
09:00−28wsw489792 0.0 1031166
12:00−25w479597 0.1 1032362
15:00−24wsw4693100 0.0 1033383
18:00−27sw469592 0.0 103389
21:00−30wsw349753 0.0 103436
27 february, sat
sat2700:00−31sw339736 0.0 103420
03:00−31sw239842 0.0 103419
06:00−31sw239944 0.0 103419
09:00−31ssw239725 0.0 103419
12:00−26s349413 0.0 1035199
15:00−25s35920 0.0 1034259
18:00−27se34950 0.0 103359
21:00−29se479533 0.0 103392
28 february, sun
sun2800:00−29se479627 0.0 1032100
03:00−27se5109736 0.0 1029145
06:00−23se6119468 0.0 1027235
09:00−20se71394100 0.0 1024294
12:00−16se81395100 0.3 1022420
15:00−11se81393100 0.8 1018552
18:00−10se81493100 1.4 1015547
21:00−6se71295100 0.9 1011457
1 march, mon
mon100:00−2se5997100 2.4 1008330
03:00+1wsw61299100 1.6 1007520
06:00+1wsw71298100 1.8 1007580
09:000w6119597 0.2 1009680
12:00−6w599396 0.3 1011367
15:00−6w359381 0.0 1013333
18:00−10w229575 0.0 101421
21:00−12nw019693 0.0 101421